FCA56W EGBB-LGSK

Flight info

Callsign FCA56W
Flight time 3h 21m
Altitude 33000
Route ADMEX Y321 EMKUK UL612 COWLY Q70 VABIK Q70 KOK UL607 REMBA DCT LIRSU DCT ULNOK DCT VIBOM DCT NOMBO DCT RIDAR DCT RADIZ DCT NEMEK DCT ETOBI DCT MEDUX UM867 KOGAT DCT ERANA UL737 TSL UL617 IBIDI
Aircraft A321/M-SDE3FGHIRWY/LB1

Departure

Time 2026-04-23 09:15
Airport Birmingham Airport (EGBB)

Arrival

Time 2026-04-23 12:36
Airport Skiathos Island National Airport (LGSK)
Time Latitude Longitude Altitude Speed Heading
2026-04-23 08:50 52.44992 -1.73430 321 ft 0 kts 326°
2026-04-23 09:05 52.44980 -1.73417 323 ft 4 kts 326°
2026-04-23 09:05 52.44962 -1.73391 323 ft 4 kts 287°
2026-04-23 09:05 52.44965 -1.73354 323 ft 4 kts 238°
2026-04-23 09:06 52.44967 -1.73347 323 ft 4 kts 236°
2026-04-23 09:06 52.44958 -1.73369 323 ft 0 kts 236°
2026-04-23 09:08 52.44957 -1.73372 323 ft 1 kts 236°
2026-04-23 09:08 52.44956 -1.73374 323 ft 0 kts 236°
2026-04-23 09:08 52.44948 -1.73395 323 ft 7 kts 236°
2026-04-23 09:08 52.44916 -1.73471 322 ft 7 kts 236°
2026-04-23 09:09 52.44902 -1.73557 323 ft 12 kts 276°
2026-04-23 09:09 52.44990 -1.73696 323 ft 20 kts 325°
2026-04-23 09:09 52.45108 -1.73784 322 ft 18 kts 325°
2026-04-23 09:09 52.45205 -1.73894 323 ft 16 kts 325°
2026-04-23 09:10 52.45293 -1.73999 322 ft 15 kts 315°
2026-04-23 09:10 52.45380 -1.74263 323 ft 12 kts 297°
2026-04-23 09:10 52.45431 -1.74426 322 ft 24 kts 297°
2026-04-23 09:11 52.45538 -1.74643 323 ft 25 kts 324°
2026-04-23 09:11 52.45686 -1.74811 314 ft 27 kts 326°
2026-04-23 09:11 52.45849 -1.74989 307 ft 29 kts 326°
2026-04-23 09:11 52.46013 -1.75170 306 ft 28 kts 326°
2026-04-23 09:12 52.46173 -1.75347 303 ft 27 kts 326°
2026-04-23 09:12 52.46330 -1.75519 302 ft 27 kts 326°
2026-04-23 09:12 52.46477 -1.75684 302 ft 24 kts 325°
2026-04-23 09:12 52.46584 -1.75805 305 ft 14 kts 326°
2026-04-23 09:13 52.46631 -1.75915 309 ft 11 kts 257°
2026-04-23 09:13 52.46578 -1.76054 304 ft 15 kts 236°
2026-04-23 09:13 52.46529 -1.76073 307 ft 3 kts 143°
2026-04-23 09:14 52.46507 -1.76048 307 ft 18 kts 145°
2026-04-23 09:14 52.46145 -1.75643 311 ft 105 kts 146°
2026-04-23 09:14 52.45352 -1.74761 354 ft 167 kts 143°
2026-04-23 09:15 52.44378 -1.73687 1110 ft 169 kts 143°
2026-04-23 09:15 52.43414 -1.72643 1755 ft 166 kts 143°
2026-04-23 09:15 52.42408 -1.71528 1959 ft 185 kts 143°
2026-04-23 09:15 52.41274 -1.70317 2133 ft 204 kts 151°
2026-04-23 09:16 52.39878 -1.69634 2528 ft 213 kts 162°
2026-04-23 09:16 52.38436 -1.69039 3115 ft 214 kts 159°
2026-04-23 09:16 52.37066 -1.68059 3526 ft 224 kts 150°
2026-04-23 09:16 52.35603 -1.66849 3747 ft 245 kts 150°
2026-04-23 09:17 52.34062 -1.65564 4299 ft 251 kts 150°
2026-04-23 09:17 52.32496 -1.64263 4941 ft 253 kts 150°
2026-04-23 09:17 52.30916 -1.62955 5601 ft 256 kts 151°
2026-04-23 09:17 52.29321 -1.61634 6251 ft 259 kts 151°
2026-04-23 09:18 52.27709 -1.60299 6901 ft 261 kts 151°
2026-04-23 09:18 52.26082 -1.58950 7546 ft 263 kts 151°
2026-04-23 09:18 52.24437 -1.57592 8133 ft 267 kts 152°
2026-04-23 09:18 52.22769 -1.56220 8716 ft 270 kts 152°
2026-04-23 09:19 52.21105 -1.54853 9302 ft 272 kts 152°
2026-04-23 09:19 52.19405 -1.53455 9863 ft 275 kts 152°
2026-04-23 09:19 52.17683 -1.52041 10406 ft 278 kts 152°
2026-04-23 09:19 52.15925 -1.50593 10955 ft 281 kts 152°
2026-04-23 09:20 52.14194 -1.49167 11465 ft 284 kts 152°
2026-04-23 09:20 52.12420 -1.47707 11974 ft 287 kts 152°
2026-04-23 09:20 52.10627 -1.46233 12489 ft 290 kts 153°
2026-04-23 09:20 52.08818 -1.44749 13012 ft 293 kts 153°
2026-04-23 09:21 52.06992 -1.43252 13500 ft 296 kts 153°
2026-04-23 09:21 52.05145 -1.41740 13985 ft 299 kts 153°
2026-04-23 09:21 52.03279 -1.40216 14480 ft 301 kts 153°
2026-04-23 09:21 52.01398 -1.38682 14959 ft 304 kts 153°
2026-04-23 09:22 51.99502 -1.37138 15431 ft 306 kts 153°
2026-04-23 09:22 51.97565 -1.35561 15917 ft 308 kts 152°
2026-04-23 09:22 51.95671 -1.34018 16375 ft 310 kts 152°
2026-04-23 09:22 51.93732 -1.32437 16809 ft 313 kts 152°
2026-04-23 09:23 51.91779 -1.30844 17256 ft 316 kts 152°
2026-04-23 09:23 51.89811 -1.29238 17691 ft 318 kts 152°
2026-04-23 09:23 51.87826 -1.27623 18116 ft 320 kts 152°
2026-04-23 09:23 51.85825 -1.26002 18531 ft 323 kts 152°
2026-04-23 09:24 51.83803 -1.24366 18935 ft 326 kts 152°
2026-04-23 09:24 51.81765 -1.22721 19309 ft 330 kts 152°
2026-04-23 09:24 51.79705 -1.21060 19686 ft 333 kts 152°
2026-04-23 09:24 51.77626 -1.19374 20058 ft 336 kts 152°
2026-04-23 09:25 51.75529 -1.17674 20422 ft 339 kts 152°
2026-04-23 09:25 51.73409 -1.15966 20782 ft 342 kts 152°
2026-04-23 09:25 51.71271 -1.14250 21127 ft 345 kts 152°
2026-04-23 09:25 51.69109 -1.12517 21470 ft 348 kts 152°
2026-04-23 09:26 51.66931 -1.10770 21811 ft 351 kts 152°
2026-04-23 09:26 51.64748 -1.08966 22146 ft 353 kts 146°
2026-04-23 09:26 51.62783 -1.06608 22463 ft 353 kts 134°
2026-04-23 09:26 51.61170 -1.03628 22701 ft 356 kts 121°
2026-04-23 09:27 51.59977 -1.00114 22827 ft 361 kts 109°
2026-04-23 09:27 51.59036 -0.96333 22956 ft 368 kts 109°
2026-04-23 09:27 51.58063 -0.92472 23085 ft 376 kts 109°
2026-04-23 09:27 51.57063 -0.88541 23212 ft 384 kts 109°
2026-04-23 09:28 51.56039 -0.84542 23338 ft 390 kts 109°
2026-04-23 09:28 51.54993 -0.80478 23469 ft 397 kts 110°
2026-04-23 09:28 51.53931 -0.76348 23583 ft 403 kts 109°
2026-04-23 09:28 51.52856 -0.72162 23715 ft 408 kts 109°
2026-04-23 09:29 51.51765 -0.67912 23839 ft 414 kts 109°
2026-04-23 09:29 51.50658 -0.63610 23967 ft 420 kts 109°
2026-04-23 09:29 51.49534 -0.59254 24094 ft 426 kts 110°
2026-04-23 09:29 51.48391 -0.54837 24218 ft 431 kts 110°
2026-04-23 09:30 51.47246 -0.50424 24343 ft 437 kts 110°
2026-04-23 09:30 51.46070 -0.45905 24469 ft 442 kts 110°
2026-04-23 09:30 51.44877 -0.41338 24597 ft 447 kts 110°
2026-04-23 09:30 51.43672 -0.36722 24724 ft 451 kts 110°
2026-04-23 09:31 51.42454 -0.32058 24846 ft 456 kts 110°
2026-04-23 09:31 51.41222 -0.27347 24975 ft 460 kts 110°
2026-04-23 09:31 51.39977 -0.22600 25100 ft 465 kts 110°
2026-04-23 09:31 51.38719 -0.17809 25229 ft 468 kts 110°
2026-04-23 09:32 51.37469 -0.13051 25346 ft 472 kts 110°
2026-04-23 09:32 51.36188 -0.08199 25476 ft 474 kts 110°
2026-04-23 09:32 51.34897 -0.03336 25630 ft 476 kts 110°
2026-04-23 09:32 51.33726 0.01607 25830 ft 474 kts 103°
2026-04-23 09:33 51.33007 0.06720 26110 ft 469 kts 96°
2026-04-23 09:33 51.32711 0.11867 26525 ft 462 kts 92°
2026-04-23 09:33 51.32486 0.16953 26935 ft 456 kts 93°
2026-04-23 09:33 51.32250 0.21992 27289 ft 453 kts 94°
2026-04-23 09:34 51.32008 0.26998 27564 ft 451 kts 94°
2026-04-23 09:34 51.31765 0.31989 27805 ft 450 kts 94°
2026-04-23 09:34 51.31522 0.36968 28028 ft 449 kts 94°
2026-04-23 09:34 51.31278 0.41937 28250 ft 448 kts 94°
2026-04-23 09:35 51.31035 0.46905 28462 ft 448 kts 94°
2026-04-23 09:35 51.30791 0.51861 28686 ft 447 kts 94°
2026-04-23 09:35 51.30543 0.56810 28906 ft 446 kts 95°
2026-04-23 09:35 51.30299 0.61753 29111 ft 446 kts 94°
2026-04-23 09:36 51.30094 0.66685 29338 ft 445 kts 94°
2026-04-23 09:36 51.29923 0.71610 29551 ft 444 kts 93°
2026-04-23 09:36 51.29768 0.76464 29762 ft 442 kts 93°
2026-04-23 09:36 51.29612 0.81359 29971 ft 441 kts 94°
2026-04-23 09:37 51.29447 0.86243 30174 ft 440 kts 94°
2026-04-23 09:37 51.29273 0.91121 30372 ft 439 kts 94°
2026-04-23 09:37 51.29092 0.95980 30575 ft 438 kts 94°
2026-04-23 09:37 51.28902 1.00833 30764 ft 437 kts 95°
2026-04-23 09:38 51.28707 1.05731 30982 ft 436 kts 95°
2026-04-23 09:38 51.28514 1.10550 31199 ft 434 kts 95°
2026-04-23 09:38 51.28324 1.15294 31409 ft 433 kts 95°
2026-04-23 09:38 51.28132 1.20082 31622 ft 431 kts 95°
2026-04-23 09:39 51.27941 1.24851 31832 ft 430 kts 95°
2026-04-23 09:39 51.27749 1.29612 32028 ft 429 kts 95°
2026-04-23 09:39 51.27555 1.34357 32218 ft 428 kts 95°
2026-04-23 09:39 51.27358 1.39097 32416 ft 427 kts 96°
2026-04-23 09:40 51.27157 1.43814 32619 ft 425 kts 96°
2026-04-23 09:40 51.26955 1.48519 32803 ft 424 kts 96°
2026-04-23 09:40 51.26757 1.53202 32969 ft 423 kts 96°
2026-04-23 09:40 51.26559 1.57882 33142 ft 422 kts 96°
2026-04-23 09:41 51.26357 1.62545 33326 ft 421 kts 96°
2026-04-23 09:41 51.26154 1.67203 33446 ft 421 kts 96°
2026-04-23 09:41 51.25946 1.71859 33468 ft 421 kts 96°
2026-04-23 09:42 51.25521 1.81178 33467 ft 420 kts 96°
2026-04-23 09:42 51.25089 1.90473 33467 ft 420 kts 96°
2026-04-23 09:43 51.24656 1.99752 33472 ft 419 kts 96°
2026-04-23 09:43 51.24219 2.09010 33478 ft 416 kts 97°
2026-04-23 09:44 51.23784 2.18201 33483 ft 415 kts 97°
2026-04-23 09:44 51.23338 2.27381 33483 ft 415 kts 97°
2026-04-23 09:45 51.22667 2.36491 33478 ft 412 kts 107°
2026-04-23 09:45 51.20361 2.44744 33477 ft 408 kts 124°
2026-04-23 09:46 51.16746 2.51716 33468 ft 409 kts 130°
2026-04-23 09:46 51.13028 2.58582 33465 ft 409 kts 130°
2026-04-23 09:47 51.09685 2.65894 33468 ft 410 kts 117°
2026-04-23 09:47 51.07802 2.74457 33464 ft 412 kts 107°
2026-04-23 09:48 51.06220 2.83207 33465 ft 412 kts 108°
2026-04-23 09:48 51.04619 2.91958 33470 ft 412 kts 108°
2026-04-23 09:49 51.03014 3.00713 33472 ft 413 kts 108°
2026-04-23 09:49 51.01401 3.09473 33476 ft 413 kts 108°
2026-04-23 09:50 50.99790 3.18225 33479 ft 413 kts 108°
2026-04-23 09:50 50.98174 3.26953 33480 ft 412 kts 108°
2026-04-23 09:51 50.96550 3.35662 33479 ft 412 kts 108°
2026-04-23 09:51 50.94916 3.44368 33477 ft 412 kts 108°
2026-04-23 09:52 50.93276 3.53063 33478 ft 411 kts 108°
2026-04-23 09:52 50.91627 3.61741 33474 ft 411 kts 108°
2026-04-23 09:53 50.89973 3.70406 33471 ft 411 kts 108°
2026-04-23 09:53 50.88312 3.79057 33472 ft 410 kts 108°
2026-04-23 09:54 50.86912 3.86293 33473 ft 410 kts 108°
2026-04-23 09:54 50.85246 3.94866 33472 ft 410 kts 108°
2026-04-23 09:55 50.83555 4.03538 33466 ft 410 kts 108°
2026-04-23 09:55 50.81871 4.12081 33467 ft 409 kts 108°
2026-04-23 09:56 50.80180 4.20670 33461 ft 409 kts 108°
2026-04-23 09:56 50.78479 4.29253 33457 ft 409 kts 108°
2026-04-23 09:57 50.76762 4.37836 33458 ft 409 kts 108°
2026-04-23 09:57 50.75057 4.46410 33454 ft 409 kts 108°
2026-04-23 09:58 50.73343 4.54983 33453 ft 410 kts 108°
2026-04-23 09:58 50.71627 4.63557 33452 ft 410 kts 108°
2026-04-23 09:59 50.69958 4.72155 33447 ft 410 kts 108°
2026-04-23 09:59 50.68300 4.80760 33445 ft 410 kts 108°
2026-04-23 10:00 50.66629 4.89361 33444 ft 410 kts 108°
2026-04-23 10:00 50.64379 4.97613 33440 ft 410 kts 115°
2026-04-23 10:01 50.61919 5.05730 33437 ft 411 kts 115°
2026-04-23 10:01 50.59460 5.13854 33435 ft 411 kts 115°
2026-04-23 10:02 50.57006 5.21992 33438 ft 412 kts 115°
2026-04-23 10:02 50.54545 5.30116 33441 ft 412 kts 115°
2026-04-23 10:03 50.52074 5.38241 33441 ft 412 kts 115°
2026-04-23 10:03 50.49594 5.46366 33439 ft 413 kts 115°
2026-04-23 10:04 50.47103 5.54481 33440 ft 413 kts 115°
2026-04-23 10:04 50.44599 5.62597 33438 ft 413 kts 115°
2026-04-23 10:05 50.42092 5.70702 33436 ft 413 kts 115°
2026-04-23 10:05 50.39582 5.78817 33434 ft 414 kts 115°
2026-04-23 10:06 50.37059 5.86946 33436 ft 415 kts 115°
2026-04-23 10:06 50.34525 5.95064 33435 ft 415 kts 115°
2026-04-23 10:07 50.31987 6.03173 33434 ft 415 kts 115°
2026-04-23 10:07 50.29448 6.11273 33430 ft 415 kts 115°
2026-04-23 10:08 50.26901 6.19368 33425 ft 415 kts 115°
2026-04-23 10:08 50.24346 6.27463 33422 ft 415 kts 115°
2026-04-23 10:09 50.20498 6.39590 33423 ft 416 kts 115°
2026-04-23 10:09 50.18245 6.47869 33421 ft 415 kts 104°
2026-04-23 10:10 50.16840 6.56596 33420 ft 415 kts 104°
2026-04-23 10:10 50.15414 6.65311 33418 ft 415 kts 104°
2026-04-23 10:11 50.13971 6.74028 33417 ft 415 kts 104°
2026-04-23 10:11 50.12524 6.82749 33410 ft 416 kts 104°
2026-04-23 10:12 50.11083 6.91471 33415 ft 416 kts 104°
2026-04-23 10:12 50.09630 7.00198 33417 ft 416 kts 104°
2026-04-23 10:13 50.08153 7.08981 33420 ft 417 kts 104°
2026-04-23 10:13 50.06679 7.17700 33422 ft 417 kts 103°
2026-04-23 10:14 50.05203 7.26416 33425 ft 417 kts 103°
2026-04-23 10:14 50.03731 7.35074 33426 ft 417 kts 103°
2026-04-23 10:15 50.02225 7.43840 33428 ft 417 kts 103°
2026-04-23 10:15 50.00723 7.52543 33428 ft 417 kts 103°
2026-04-23 10:16 49.99217 7.61240 33422 ft 416 kts 103°
2026-04-23 10:16 49.97704 7.69921 33428 ft 416 kts 103°
2026-04-23 10:17 49.96187 7.78594 33424 ft 416 kts 103°
2026-04-23 10:17 49.94664 7.87260 33425 ft 416 kts 103°
2026-04-23 10:18 49.93153 7.95862 33421 ft 416 kts 103°
2026-04-23 10:18 49.91616 8.04511 33417 ft 416 kts 103°
2026-04-23 10:19 49.90063 8.13208 33415 ft 416 kts 103°
2026-04-23 10:19 49.88518 8.21853 33400 ft 416 kts 103°
2026-04-23 10:20 49.86963 8.30484 33393 ft 416 kts 103°
2026-04-23 10:20 49.85324 8.39082 33403 ft 417 kts 109°
2026-04-23 10:21 49.82357 8.46845 33392 ft 424 kts 125°
2026-04-23 10:21 49.78670 8.53970 33394 ft 424 kts 124°
2026-04-23 10:22 49.75000 8.61116 33390 ft 425 kts 124°
2026-04-23 10:22 49.71313 8.68248 33394 ft 425 kts 124°
2026-04-23 10:23 49.67616 8.75376 33395 ft 426 kts 124°
2026-04-23 10:23 49.63902 8.82513 33388 ft 427 kts 124°
2026-04-23 10:24 49.60181 8.89648 33399 ft 427 kts 125°
2026-04-23 10:24 49.56451 8.96782 33391 ft 428 kts 124°
2026-04-23 10:25 49.52713 9.03923 33387 ft 428 kts 124°
2026-04-23 10:25 49.48966 9.11057 33395 ft 429 kts 125°
2026-04-23 10:26 49.45399 9.18376 33390 ft 426 kts 119°
2026-04-23 10:26 49.42165 9.26003 33383 ft 427 kts 119°
2026-04-23 10:27 49.38916 9.33629 33383 ft 427 kts 119°
2026-04-23 10:27 49.35651 9.41251 33384 ft 427 kts 119°
2026-04-23 10:28 49.32382 9.48865 33380 ft 428 kts 119°
2026-04-23 10:28 49.29113 9.56485 33379 ft 428 kts 119°
2026-04-23 10:29 49.25835 9.64100 33376 ft 428 kts 119°
2026-04-23 10:29 49.22540 9.71699 33375 ft 429 kts 119°
2026-04-23 10:30 49.19240 9.79304 33380 ft 429 kts 119°
2026-04-23 10:30 49.15940 9.86900 33382 ft 429 kts 119°
2026-04-23 10:31 49.12630 9.94488 33390 ft 429 kts 119°
2026-04-23 10:31 49.09310 10.02061 33386 ft 429 kts 120°
2026-04-23 10:32 49.05849 10.09499 33376 ft 434 kts 127°
2026-04-23 10:32 49.02316 10.14981 33365 ft 437 kts 130°
2026-04-23 10:33 48.97998 10.21538 33364 ft 438 kts 130°
2026-04-23 10:33 48.93675 10.28083 33366 ft 439 kts 130°
2026-04-23 10:34 48.89344 10.34621 33366 ft 439 kts 130°
2026-04-23 10:34 48.84977 10.41203 33370 ft 439 kts 130°
2026-04-23 10:35 48.80640 10.47732 33367 ft 439 kts 130°
2026-04-23 10:35 48.76299 10.54248 33369 ft 439 kts 130°
2026-04-23 10:36 48.71984 10.60703 33365 ft 439 kts 130°
2026-04-23 10:36 48.67607 10.67242 33362 ft 439 kts 130°
2026-04-23 10:37 48.63257 10.73715 33358 ft 439 kts 130°
2026-04-23 10:37 48.58923 10.80206 33349 ft 437 kts 127°
2026-04-23 10:38 48.55086 10.87264 33347 ft 435 kts 124°
2026-04-23 10:38 48.51271 10.94346 33346 ft 435 kts 124°
2026-04-23 10:39 48.47446 11.01420 33347 ft 435 kts 124°
2026-04-23 10:39 48.43617 11.08498 33350 ft 436 kts 124°
2026-04-23 10:40 48.39777 11.15569 33351 ft 436 kts 124°
2026-04-23 10:40 48.35930 11.22629 33355 ft 437 kts 124°
2026-04-23 10:41 48.32080 11.29687 33355 ft 437 kts 124°
2026-04-23 10:41 48.28225 11.36741 33356 ft 437 kts 124°
2026-04-23 10:42 48.24362 11.43786 33359 ft 437 kts 124°
2026-04-23 10:42 48.20493 11.50815 33360 ft 437 kts 124°
2026-04-23 10:43 48.16615 11.57836 33358 ft 437 kts 124°
2026-04-23 10:43 48.12730 11.64849 33359 ft 437 kts 124°
2026-04-23 10:44 48.08850 11.71857 33358 ft 437 kts 124°
2026-04-23 10:44 48.04963 11.78856 33356 ft 438 kts 124°
2026-04-23 10:45 48.01068 11.85838 33351 ft 438 kts 124°
2026-04-23 10:45 47.97167 11.92804 33348 ft 437 kts 124°
2026-04-23 10:46 47.93263 11.99777 33347 ft 438 kts 124°
2026-04-23 10:46 47.89360 12.06739 33345 ft 438 kts 124°
2026-04-23 10:47 47.85447 12.13693 33345 ft 438 kts 124°
2026-04-23 10:47 47.81501 12.20685 33345 ft 438 kts 124°
2026-04-23 10:48 47.77600 12.27574 33344 ft 438 kts 124°
2026-04-23 10:48 47.73668 12.34498 33340 ft 438 kts 124°
2026-04-23 10:49 47.69733 12.41415 33333 ft 438 kts 124°
2026-04-23 10:49 47.65793 12.48327 33328 ft 439 kts 124°
2026-04-23 10:50 47.61748 12.55121 33324 ft 443 kts 130°
2026-04-23 10:50 47.57251 12.61467 33325 ft 444 kts 130°
2026-04-23 10:51 47.52788 12.67779 33321 ft 444 kts 130°
2026-04-23 10:51 47.48329 12.74088 33316 ft 444 kts 130°
2026-04-23 10:52 47.43852 12.80390 33316 ft 445 kts 130°
2026-04-23 10:52 47.39362 12.86684 33321 ft 445 kts 130°
2026-04-23 10:53 47.34873 12.92979 33319 ft 445 kts 130°
2026-04-23 10:53 47.30374 12.99261 33317 ft 445 kts 130°
2026-04-23 10:54 47.25872 13.05528 33313 ft 445 kts 130°
2026-04-23 10:54 47.21369 13.11784 33305 ft 445 kts 130°
2026-04-23 10:55 47.16867 13.18040 33294 ft 446 kts 130°
2026-04-23 10:55 47.12355 13.24293 33290 ft 446 kts 130°
2026-04-23 10:56 47.07836 13.30534 33284 ft 446 kts 130°
2026-04-23 10:56 47.03306 13.36759 33284 ft 447 kts 131°
2026-04-23 10:57 46.98772 13.42976 33273 ft 446 kts 131°
2026-04-23 10:57 46.94240 13.49188 33272 ft 447 kts 131°
2026-04-23 10:58 46.89699 13.55389 33262 ft 446 kts 131°
2026-04-23 10:58 46.85160 13.61568 33254 ft 446 kts 131°
2026-04-23 10:59 46.80622 13.67754 33247 ft 446 kts 131°
2026-04-23 10:59 46.76077 13.73924 33251 ft 446 kts 131°
2026-04-23 11:00 46.71523 13.80071 33251 ft 446 kts 131°
2026-04-23 11:00 46.66981 13.86219 33241 ft 445 kts 131°
2026-04-23 11:01 46.62436 13.92349 33246 ft 446 kts 131°
2026-04-23 11:01 46.57873 13.98469 33247 ft 446 kts 131°
2026-04-23 11:02 46.53306 14.04589 33242 ft 447 kts 131°
2026-04-23 11:02 46.48735 14.10703 33245 ft 447 kts 131°
2026-04-23 11:03 46.44157 14.16810 33242 ft 447 kts 131°
2026-04-23 11:03 46.39581 14.22909 33240 ft 447 kts 131°
2026-04-23 11:04 46.35000 14.28993 33235 ft 447 kts 131°
2026-04-23 11:04 46.30407 14.35068 33232 ft 447 kts 131°
2026-04-23 11:05 46.25808 14.41137 33231 ft 448 kts 131°
2026-04-23 11:05 46.21212 14.47204 33230 ft 447 kts 131°
2026-04-23 11:06 46.14313 14.56281 33228 ft 448 kts 131°
2026-04-23 11:07 46.09699 14.62321 33225 ft 448 kts 131°
2026-04-23 11:07 46.05084 14.68357 33225 ft 448 kts 131°
2026-04-23 11:08 46.00465 14.74387 33220 ft 448 kts 131°
2026-04-23 11:08 45.95839 14.80390 33229 ft 447 kts 131°
2026-04-23 11:09 45.91229 14.86375 33232 ft 446 kts 131°
2026-04-23 11:09 45.87375 14.91374 33231 ft 445 kts 132°
2026-04-23 11:10 45.82775 14.97317 33227 ft 445 kts 131°
2026-04-23 11:10 45.78211 15.03205 33218 ft 444 kts 131°
2026-04-23 11:11 45.73619 15.09124 33216 ft 444 kts 132°
2026-04-23 11:11 45.69010 15.15043 33216 ft 446 kts 132°
2026-04-23 11:12 45.64393 15.20955 33220 ft 446 kts 132°
2026-04-23 11:12 45.59767 15.26856 33220 ft 446 kts 132°
2026-04-23 11:13 45.55483 15.33135 33218 ft 439 kts 124°
2026-04-23 11:13 45.51548 15.39791 33216 ft 439 kts 124°
2026-04-23 11:14 45.47596 15.46424 33216 ft 439 kts 124°
2026-04-23 11:14 45.43648 15.53051 33213 ft 438 kts 124°
2026-04-23 11:15 45.39701 15.59669 33209 ft 439 kts 124°
2026-04-23 11:15 45.35739 15.66280 33207 ft 439 kts 124°
2026-04-23 11:16 45.31776 15.72884 33205 ft 439 kts 124°
2026-04-23 11:16 45.27816 15.79477 33210 ft 439 kts 124°
2026-04-23 11:17 45.23852 15.86056 33213 ft 438 kts 124°
2026-04-23 11:17 45.19889 15.92614 33212 ft 438 kts 124°
2026-04-23 11:18 45.15921 15.99157 33213 ft 437 kts 124°
2026-04-23 11:18 45.11954 16.05686 33213 ft 437 kts 124°
2026-04-23 11:19 45.07987 16.12204 33215 ft 437 kts 124°
2026-04-23 11:19 45.04017 16.18709 33215 ft 436 kts 124°
2026-04-23 11:20 45.00056 16.25186 33213 ft 435 kts 124°
2026-04-23 11:20 44.96099 16.31647 33212 ft 434 kts 124°
2026-04-23 11:21 44.92145 16.38086 33216 ft 434 kts 124°
2026-04-23 11:21 44.88190 16.44509 33211 ft 433 kts 124°
2026-04-23 11:22 44.84239 16.50902 33213 ft 432 kts 124°
2026-04-23 11:22 44.80297 16.57286 33208 ft 432 kts 124°
2026-04-23 11:23 44.76361 16.63658 33200 ft 431 kts 124°
2026-04-23 11:23 44.72414 16.70000 33196 ft 431 kts 125°
2026-04-23 11:24 44.68463 16.76335 33194 ft 431 kts 125°
2026-04-23 11:24 44.64512 16.82665 33196 ft 431 kts 124°
2026-04-23 11:25 44.60561 16.88982 33194 ft 430 kts 124°
2026-04-23 11:25 44.56676 16.95339 33193 ft 428 kts 122°
2026-04-23 11:26 44.53017 17.01889 33189 ft 426 kts 121°
2026-04-23 11:26 44.49401 17.08486 33194 ft 427 kts 121°
2026-04-23 11:27 44.45738 17.15028 33196 ft 427 kts 122°
2026-04-23 11:27 44.42042 17.21529 33192 ft 427 kts 122°
2026-04-23 11:28 44.38335 17.28019 33199 ft 427 kts 122°
2026-04-23 11:28 44.34638 17.34492 33194 ft 426 kts 122°
2026-04-23 11:29 44.30950 17.40962 33194 ft 425 kts 122°
2026-04-23 11:29 44.27265 17.47413 33190 ft 425 kts 122°
2026-04-23 11:30 44.23581 17.53855 33193 ft 424 kts 122°
2026-04-23 11:30 44.19869 17.60316 33189 ft 424 kts 122°
2026-04-23 11:31 44.16175 17.66713 33197 ft 424 kts 122°
2026-04-23 11:31 44.12487 17.73098 33194 ft 423 kts 122°
2026-04-23 11:32 44.08799 17.79478 33192 ft 423 kts 122°
2026-04-23 11:32 44.05117 17.85844 33190 ft 422 kts 122°
2026-04-23 11:33 44.01464 17.92138 33181 ft 421 kts 122°
2026-04-23 11:33 43.97779 17.98447 33169 ft 420 kts 122°
2026-04-23 11:34 43.94071 18.04790 33182 ft 420 kts 122°
2026-04-23 11:34 43.90391 18.11090 33181 ft 420 kts 122°
2026-04-23 11:35 43.86705 18.17385 33160 ft 420 kts 122°
2026-04-23 11:35 43.83009 18.23676 33165 ft 421 kts 122°
2026-04-23 11:36 43.79305 18.29971 33168 ft 422 kts 123°
2026-04-23 11:36 43.75593 18.36264 33154 ft 422 kts 123°
2026-04-23 11:37 43.71869 18.42557 33149 ft 423 kts 123°
2026-04-23 11:37 43.68137 18.48853 33148 ft 424 kts 123°
2026-04-23 11:38 43.64394 18.55159 33140 ft 425 kts 123°
2026-04-23 11:38 43.60640 18.61479 33138 ft 426 kts 123°
2026-04-23 11:39 43.56870 18.67805 33136 ft 428 kts 123°
2026-04-23 11:39 43.53078 18.74146 33131 ft 429 kts 124°
2026-04-23 11:40 43.49268 18.80488 33131 ft 431 kts 124°
2026-04-23 11:40 43.45445 18.86850 33127 ft 432 kts 124°
2026-04-23 11:41 43.41610 18.93222 33125 ft 433 kts 124°
2026-04-23 11:41 43.37768 18.99602 33118 ft 434 kts 124°
2026-04-23 11:42 43.33915 19.05985 33115 ft 434 kts 124°
2026-04-23 11:42 43.30052 19.12369 33111 ft 435 kts 124°
2026-04-23 11:43 43.26179 19.18756 33112 ft 436 kts 124°
2026-04-23 11:43 43.22281 19.25157 33108 ft 436 kts 124°
2026-04-23 11:44 43.18384 19.31546 33106 ft 437 kts 124°
2026-04-23 11:44 43.14484 19.37942 33106 ft 438 kts 124°
2026-04-23 11:45 43.10568 19.44337 33102 ft 438 kts 125°
2026-04-23 11:45 43.06643 19.50723 33099 ft 439 kts 125°
2026-04-23 11:46 43.02713 19.57109 33098 ft 439 kts 125°
2026-04-23 11:46 42.98772 19.63500 33102 ft 440 kts 125°
2026-04-23 11:47 42.94828 19.69889 33092 ft 440 kts 125°
2026-04-23 11:47 42.90876 19.76280 33082 ft 441 kts 126°
2026-04-23 11:48 42.86907 19.82675 33078 ft 442 kts 126°
2026-04-23 11:48 42.83601 19.87994 33077 ft 443 kts 126°
2026-04-23 11:49 42.79610 19.94399 33078 ft 444 kts 126°
2026-04-23 11:49 42.75601 20.00813 33078 ft 445 kts 126°
2026-04-23 11:50 42.71611 20.07271 33075 ft 446 kts 125°
2026-04-23 11:50 42.67676 20.13819 33075 ft 448 kts 125°
2026-04-23 11:51 42.63733 20.20379 33076 ft 448 kts 126°
2026-04-23 11:51 42.59760 20.26929 33076 ft 450 kts 126°
2026-04-23 11:52 42.55766 20.33466 33078 ft 450 kts 126°
2026-04-23 11:52 42.51762 20.40011 33079 ft 451 kts 126°
2026-04-23 11:53 42.47753 20.46557 33081 ft 452 kts 126°
2026-04-23 11:53 42.43739 20.53108 33084 ft 452 kts 126°
2026-04-23 11:54 42.39721 20.59653 33086 ft 452 kts 126°
2026-04-23 11:54 42.35697 20.66188 33087 ft 452 kts 126°
2026-04-23 11:55 42.31688 20.72673 33089 ft 453 kts 126°
2026-04-23 11:55 42.27642 20.79197 33090 ft 453 kts 127°
2026-04-23 11:56 42.23594 20.85724 33093 ft 454 kts 126°
2026-04-23 11:56 42.19541 20.92260 33098 ft 454 kts 126°
2026-04-23 11:57 42.15477 20.98783 33089 ft 454 kts 127°
2026-04-23 11:57 42.11391 21.05281 33083 ft 456 kts 130°
2026-04-23 11:58 42.06801 21.11217 33083 ft 458 kts 134°
2026-04-23 11:58 42.02160 21.17102 33081 ft 459 kts 134°
2026-04-23 11:59 41.97512 21.22994 33078 ft 460 kts 134°
2026-04-23 11:59 41.92843 21.28902 33052 ft 462 kts 135°
2026-04-23 12:00 41.88143 21.34833 33051 ft 465 kts 136°
2026-04-23 12:00 41.83411 21.40783 33054 ft 467 kts 135°
2026-04-23 12:01 41.78663 21.46753 33059 ft 468 kts 135°
2026-04-23 12:01 41.73908 21.52723 33061 ft 469 kts 136°
2026-04-23 12:02 41.69141 21.58689 33067 ft 469 kts 136°
2026-04-23 12:02 41.64368 21.64653 33070 ft 470 kts 136°
2026-04-23 12:03 41.59580 21.70614 33075 ft 470 kts 136°
2026-04-23 12:03 41.54790 21.76562 33077 ft 470 kts 136°
2026-04-23 12:04 41.50003 21.82508 33077 ft 470 kts 136°
2026-04-23 12:04 41.45214 21.88445 33076 ft 470 kts 136°
2026-04-23 12:05 41.40411 21.94367 33076 ft 470 kts 135°
2026-04-23 12:05 41.35654 22.00221 33060 ft 459 kts 134°
2026-04-23 12:06 41.30970 22.05980 33064 ft 458 kts 135°
2026-04-23 12:06 41.23935 22.14634 33062 ft 460 kts 135°
2026-04-23 12:07 41.19223 22.20404 33063 ft 462 kts 136°
2026-04-23 12:07 41.14460 22.26129 33059 ft 463 kts 138°
2026-04-23 12:08 41.09477 22.31543 33051 ft 464 kts 141°
2026-04-23 12:08 41.04395 22.36828 33039 ft 465 kts 141°
2026-04-23 12:09 40.99334 22.42169 33042 ft 466 kts 141°
2026-04-23 12:09 40.94297 22.47568 33049 ft 466 kts 141°
2026-04-23 12:10 40.89255 22.52984 33049 ft 467 kts 141°
2026-04-23 12:10 40.84194 22.58397 33051 ft 469 kts 142°
2026-04-23 12:11 40.79111 22.63800 33050 ft 470 kts 142°
2026-04-23 12:11 40.74012 22.69202 33055 ft 470 kts 142°
2026-04-23 12:12 40.68912 22.74607 33059 ft 471 kts 142°
2026-04-23 12:12 40.63795 22.80020 33063 ft 472 kts 143°
2026-04-23 12:13 40.58676 22.85427 33065 ft 472 kts 143°
2026-04-23 12:13 40.53546 22.90840 33065 ft 473 kts 143°
2026-04-23 12:14 40.48403 22.96229 33068 ft 473 kts 144°
2026-04-23 12:14 40.45716 22.98680 32659 ft 468 kts 152°
2026-04-23 12:14 40.42808 23.00562 31814 ft 465 kts 162°
2026-04-23 12:15 40.39773 23.02063 30957 ft 466 kts 163°
2026-04-23 12:15 40.36734 23.03560 30097 ft 467 kts 163°
2026-04-23 12:15 40.33689 23.05063 29225 ft 468 kts 163°
2026-04-23 12:15 40.30643 23.06572 28302 ft 469 kts 163°
2026-04-23 12:16 40.27585 23.08093 27331 ft 471 kts 163°
2026-04-23 12:16 40.24520 23.09618 26311 ft 473 kts 163°
2026-04-23 12:16 40.21437 23.11151 25248 ft 475 kts 163°
2026-04-23 12:16 40.18340 23.12686 24147 ft 477 kts 162°
2026-04-23 12:17 40.15233 23.14224 23118 ft 477 kts 162°
2026-04-23 12:17 40.12147 23.15751 22344 ft 471 kts 162°
2026-04-23 12:17 40.09102 23.17258 21582 ft 466 kts 162°
2026-04-23 12:17 40.06089 23.18748 20802 ft 460 kts 162°
2026-04-23 12:18 40.03115 23.20221 20029 ft 455 kts 162°
2026-04-23 12:18 40.00168 23.21678 19264 ft 450 kts 162°
2026-04-23 12:18 39.97258 23.23114 18500 ft 445 kts 163°
2026-04-23 12:18 39.94380 23.24528 17718 ft 440 kts 163°
2026-04-23 12:19 39.91528 23.25926 16940 ft 436 kts 163°
2026-04-23 12:19 39.88706 23.27309 16162 ft 431 kts 162°
2026-04-23 12:19 39.85916 23.28676 15389 ft 426 kts 162°
2026-04-23 12:19 39.83151 23.30031 14608 ft 422 kts 161°
2026-04-23 12:20 39.80423 23.31369 13807 ft 417 kts 161°
2026-04-23 12:20 39.77722 23.32690 13011 ft 412 kts 161°
2026-04-23 12:20 39.75055 23.33990 12225 ft 407 kts 160°
2026-04-23 12:20 39.72413 23.35275 11438 ft 403 kts 160°
2026-04-23 12:21 39.69796 23.36546 10653 ft 400 kts 160°
2026-04-23 12:21 39.67241 23.37787 9947 ft 396 kts 159°
2026-04-23 12:21 39.64718 23.39012 9762 ft 377 kts 159°
2026-04-23 12:21 39.62324 23.40173 9620 ft 359 kts 159°
2026-04-23 12:22 39.60041 23.41283 9499 ft 342 kts 159°
2026-04-23 12:22 39.57869 23.42342 9378 ft 326 kts 159°
2026-04-23 12:22 39.55793 23.43353 9251 ft 311 kts 158°
2026-04-23 12:22 39.53807 23.44318 9112 ft 299 kts 158°
2026-04-23 12:23 39.51882 23.45251 8791 ft 293 kts 158°
2026-04-23 12:23 39.49981 23.46171 8405 ft 291 kts 158°
2026-04-23 12:23 39.48092 23.47087 8003 ft 289 kts 158°
2026-04-23 12:23 39.46214 23.47994 7587 ft 287 kts 158°
2026-04-23 12:24 39.44351 23.48893 7179 ft 285 kts 158°
2026-04-23 12:24 39.42497 23.49788 6767 ft 283 kts 158°
2026-04-23 12:24 39.40662 23.50675 6353 ft 281 kts 158°
2026-04-23 12:24 39.38836 23.51559 5926 ft 280 kts 158°
2026-04-23 12:25 39.37021 23.52439 5511 ft 278 kts 158°
2026-04-23 12:25 39.35218 23.53313 5108 ft 276 kts 158°
2026-04-23 12:25 39.33429 23.54176 4682 ft 274 kts 158°
2026-04-23 12:25 39.31646 23.55042 4265 ft 273 kts 158°
2026-04-23 12:26 39.29879 23.55894 3998 ft 271 kts 158°
2026-04-23 12:26 39.28109 23.56749 4002 ft 272 kts 158°
2026-04-23 12:26 39.26330 23.57613 4003 ft 273 kts 158°
2026-04-23 12:26 39.24551 23.58473 4009 ft 273 kts 158°
2026-04-23 12:27 39.22775 23.59329 4011 ft 272 kts 158°
2026-04-23 12:27 39.21031 23.60164 4017 ft 259 kts 158°
2026-04-23 12:27 39.19364 23.60777 4041 ft 240 kts 171°
2026-04-23 12:27 39.17747 23.60815 3999 ft 227 kts 186°
2026-04-23 12:28 39.16225 23.60338 3989 ft 224 kts 202°
2026-04-23 12:28 39.14889 23.59516 4017 ft 202 kts 208°
2026-04-23 12:28 39.13696 23.58737 4018 ft 182 kts 207°
2026-04-23 12:28 39.12584 23.58012 4015 ft 179 kts 210°
2026-04-23 12:29 39.11484 23.57294 4011 ft 177 kts 208°
2026-04-23 12:29 39.10384 23.56574 4025 ft 177 kts 208°
2026-04-23 12:29 39.09287 23.55856 4030 ft 176 kts 210°
2026-04-23 12:29 39.08226 23.55165 4023 ft 168 kts 208°
2026-04-23 12:30 39.07192 23.54491 4017 ft 166 kts 212°
2026-04-23 12:30 39.06169 23.53818 4028 ft 165 kts 208°
2026-04-23 12:30 39.05141 23.53144 4034 ft 165 kts 207°
2026-04-23 12:30 39.04447 23.52685 4038 ft 168 kts 209°
2026-04-23 12:31 39.03093 23.51789 4007 ft 163 kts 213°
2026-04-23 12:31 39.02302 23.50805 4009 ft 160 kts 242°
2026-04-23 12:31 39.01982 23.49470 4031 ft 154 kts 272°
2026-04-23 12:31 39.02061 23.48556 4041 ft 152 kts 291°
2026-04-23 12:32 39.02562 23.47397 4035 ft 146 kts 316°
2026-04-23 12:32 39.03376 23.46676 4034 ft 142 kts 340°
2026-04-23 12:32 39.04325 23.46472 4036 ft 139 kts
2026-04-23 12:32 39.05298 23.46710 3893 ft 145 kts 12°
2026-04-23 12:33 39.06270 23.46935 3665 ft 142 kts
2026-04-23 12:33 39.07248 23.47157 3318 ft 144 kts
2026-04-23 12:33 39.08242 23.47361 2913 ft 146 kts
2026-04-23 12:33 39.09254 23.47575 2483 ft 149 kts
2026-04-23 12:34 39.10288 23.47779 2058 ft 150 kts
2026-04-23 12:34 39.11318 23.47995 1660 ft 149 kts
2026-04-23 12:34 39.12331 23.48230 1321 ft 146 kts 10°
2026-04-23 12:34 39.13347 23.48499 893 ft 150 kts 13°
2026-04-23 12:35 39.14325 23.48860 627 ft 143 kts 17°
2026-04-23 12:35 39.15252 23.49269 414 ft 140 kts 19°
2026-04-23 12:35 39.16164 23.49691 237 ft 139 kts 18°
2026-04-23 12:35 39.17083 23.50086 66 ft 139 kts 18°
2026-04-23 12:36 39.17897 23.50449 41 ft 90 kts 19°
2026-04-23 12:36 39.18198 23.50584 54 ft 2 kts 19°
2026-04-23 12:36 39.18210 23.50589 55 ft 19 kts 19°
2026-04-23 12:36 39.18473 23.50710 57 ft 27 kts 24°
2026-04-23 12:37 39.18524 23.50720 61 ft 3 kts 285°
2026-04-23 12:37 39.18481 23.50698 59 ft 17 kts 193°